Youngstown, OH

10:22 PM EDT on May 28, 2017 (GMT -0400)
Youngstown-Warren Regional

Weather History for KYNG - August, 2012

Change the Weather History Date:

Monday, August 13, 2012

  Actual Average Record
Temperature  
Mean Temperature 68 °F 70 °F  
Max Temperature 80 °F 80 °F 94 °F (1947)
Min Temperature 56 °F 59 °F 44 °F (1979)
Degree Days  
Heating Degree Days 0 1  
Month to date heating degree days 2 8  
Since 1 June heating degree days 43 90  
Since 1 July heating degree days 2 21  
Cooling Degree Days 3 5  
Month to date cooling degree days 76 73  
Year to date cooling degree days 640 407  
Since 1 June cooling degree days 539 368  
Growing Degree Days 18 (Base 50)    
Moisture  
Dew Point 58 °F    
Average Humidity 69    
Maximum Humidity 93    
Minimum Humidity 45    
Precipitation  
Precipitation 0.18 in 0.09 in 1.79 in (1955)
Month to date precipitation 1.87 1.38  
Year to date precipitation 25.83 24.36  
Snow  
Snow 0.00 in 0.00 in - ()
Month to date snowfall 0.0 0.0  
Since 1 June snowfall T 0.0  
Since 1 July snowfall T 0.0  
Snow Depth 0.00 in    
Sea Level Pressure  
Sea Level Pressure 30.01 in    
Wind  
Wind Speed 3 mph (WNW)    
Max Wind Speed 12 mph    
Max Gust Speed 15 mph    
Visibility 9 miles    
Events Rain    
T = Trace of Precipitation, MM = Missing Value Source: NWS Daily Summary

Daily Weather History Graph

Daily Weather History Graph

Search for Another Location

Airport or City:

Trip Planner

Search our weather history database for the weather conditions in past years. The results will help you decide how hot, cold, wet, or windy it might be!

Date:

Astronomy

Aug. 13, 2012 Rise Set
Actual Time 6:30 AM EDT 8:23 PM EDT
Civil Twilight 6:00 AM EDT 8:53 PM EDT
Nautical Twilight 5:24 AM EDT 9:29 PM EDT
Astronomical Twilight 4:44 AM EDT 10:08 PM EDT
Moon 2:30 AM EDT (8/13) 5:35 PM EDT (8/13)
Length of Visible Light 14h 52m
Length of Day
13h 53m
Waning Crescent, 16% of the Moon is Illuminated
Aug 13
Waning Crescent
Aug 17
New
Aug 24
First Quarter
Aug 31
Full
Sep 8
Last Quarter

Hourly Weather History & Observations

Time (EDT) Temp. Dew Point Humidity Pressure Visibility Wind Dir Wind Speed Gust Speed Precip Events Conditions
12:51 AM 60.1 °F 55.9 °F 86% 30.03 in 10.0 mi Calm Calm - N/A   Mostly Cloudy
1:51 AM 57.9 °F 55.9 °F 93% 30.03 in 10.0 mi Calm Calm - N/A   Scattered Clouds
2:51 AM 57.0 °F 55.0 °F 93% 30.02 in 10.0 mi Calm Calm - N/A   Mostly Cloudy
3:51 AM 57.0 °F 55.0 °F 93% 30.01 in 10.0 mi Calm Calm - N/A   Mostly Cloudy
4:51 AM 60.1 °F 55.9 °F 86% 30.01 in 10.0 mi Calm Calm - N/A   Overcast
5:51 AM 59.0 °F 55.9 °F 90% 30.02 in 10.0 mi SE 3.5 mph - N/A   Mostly Cloudy
6:51 AM 61.0 °F 55.9 °F 83% 30.04 in 10.0 mi South 3.5 mph - N/A   Mostly Cloudy
7:51 AM 63.0 °F 59.0 °F 87% 30.05 in 10.0 mi Calm Calm - N/A   Mostly Cloudy
8:51 AM 64.9 °F 57.9 °F 78% 30.06 in 10.0 mi SW 3.5 mph - N/A   Mostly Cloudy
9:51 AM 69.1 °F 59.0 °F 70% 30.04 in 10.0 mi Variable 4.6 mph - N/A   Mostly Cloudy
10:51 AM 73.0 °F 59.0 °F 61% 30.04 in 10.0 mi SW 5.8 mph - N/A   Mostly Cloudy
11:51 AM 75.9 °F 55.0 °F 48% 30.02 in 10.0 mi SW 8.1 mph - N/A   Mostly Cloudy
12:51 PM 77.0 °F 55.0 °F 47% 30.01 in 10.0 mi WSW 5.8 mph - N/A   Mostly Cloudy
1:51 PM 77.0 °F 55.0 °F 47% 30.00 in 10.0 mi WSW 4.6 mph - N/A   Mostly Cloudy
2:51 PM 78.1 °F 55.0 °F 45% 29.98 in 10.0 mi Calm Calm - N/A   Mostly Cloudy
3:51 PM 78.1 °F 55.9 °F 46% 29.97 in 10.0 mi WSW 6.9 mph - N/A   Mostly Cloudy
4:51 PM 77.0 °F 55.9 °F 48% 29.96 in 10.0 mi Calm Calm - N/A   Mostly Cloudy
5:51 PM 78.1 °F 57.0 °F 48% 29.96 in 10.0 mi Calm Calm - N/A   Overcast
6:51 PM 75.9 °F 57.9 °F 54% 29.96 in 10.0 mi NNE 3.5 mph - N/A   Overcast
7:51 PM 73.0 °F 61.0 °F 66% 29.96 in 10.0 mi Calm Calm - N/A   Overcast
8:43 PM 68.0 °F 62.6 °F 83% 30.00 in 3.0 mi NW 8.1 mph - 0.03 in Rain Rain
8:51 PM 66.9 °F 63.0 °F 87% 29.99 in 3.0 mi NNW 6.9 mph - 0.05 in Rain Rain
9:25 PM 64.4 °F 60.8 °F 88% 30.01 in 2.5 mi North 5.8 mph - 0.12 in Rain Rain
9:40 PM 64.4 °F 60.8 °F 88% 30.01 in 5.0 mi North 8.1 mph - 0.13 in Rain Light Rain
9:51 PM 64.0 °F 61.0 °F 90% 29.99 in 8.0 mi North 6.9 mph - 0.13 in Rain Light Rain
10:51 PM 64.0 °F 61.0 °F 90% 29.99 in 10.0 mi NE 4.6 mph - 0.00 in   Overcast
11:51 PM 64.0 °F 62.1 °F 93% 29.97 in 9.0 mi ENE 6.9 mph - 0.00 in   Overcast